weather.gov     
National Weather Service

Terminal Aerodrome Forecast
NWS Homepage
This page is being discontinued on March 12, 2014.
The same data is available at this site. Please update your bookmarks.
Thank you, and we apologize for the inconvenience.
Please send an email to SR-SRH.Webmaster@noaa.gov with any concerns.


Current Version
Previous Version:    01  02  03  04  05  06  07  08  09  10  11  12  13  14  15  16  17  18  19  20  21  22  23  24  25  26  27  28  29  30  
   31  32  33  34  35  36  37  38  39  40  41  42  43  44  45  46  47  48  49  50  51  52  53  54  55  
[Printable]
100
FTUS43 KGLD 171120
TAFGLD
TAF
KGLD 171120Z 1712/1812 25005KT P6SM SKC
     FM171500 VRB05KT P6SM SKC
     FM171900 16006KT P6SM FEW050 SCT200
     FM180000 21010KT P6SM SCT200=




100
FTUS43 KGLD 171120
TAFGLD
TAF
KGLD 171120Z 1712/1812 25005KT P6SM SKC
     FM171500 VRB05KT P6SM SKC
     FM171900 16006KT P6SM FEW050 SCT200
     FM180000 21010KT P6SM SCT200=


U.S. Dept. of Commerce
NOAA National Weather Service
1325 East West Highway
Silver Spring, MD 20910
E-mail: w-nws.webmaster@noaa.gov
Page last modified: May 16, 2007
NATIONAL WEATHER SERVICE: for Safety, for Work, for Fun - FOR LIFE